Theta_e
350 358 363 366 366 366 366 368 367 367 366 367 367 367 367 368 367 366 366 367 363 365 364 365 363 363 362 363 362 362 362 360 360 360 361 361 360 358 357 355 356 354 359
353 359 363 368 368 366 366 367 367 366 367 367 366 366 366 366 364 363 365 362 364 365 364 364 362 362 363 361 361 361 361 360 360 359 359 358 359 358 359 357 362 357 358
352 357 360 368 366 365 366 367 367 365 367 367 366 366 364 363 364 363 363 362 362 364 363 362 363 363 361 361 359 358 357 358 360 361 358 355 353 358 359 355 357 358 357
353 356 357 367 367 367 366 367 366 365 365 364 365 365 366 364 364 362 362 364 364 362 363 363 359 361 361 360 360 359 357 357 357 359 356 354 347 361 359 355 358 358 357
352 356 361 367 367 365 366 367 367 366 365 365 365 364 363 362 360 358 359 360 360 362 361 360 360 359 359 357 356 355 357 360 360 359 355 352 348 356 357 358 355 358 357
351 355 364 367 365 365 366 366 365 367 365 364 362 362 361 362 362 360 358 360 361 362 362 361 359 358 356 355 355 356 359 361 360 356 356 351 346 359 358 359 359 353 356
350 352 360 367 367 365 365 366 366 367 366 363 361 360 363 366 361 361 363 363 361 361 360 359 357 355 353 353 355 359 363 360 355 354 355 347 352 361 358 358 359 354 350
348 352 358 365 367 368 365 364 365 366 363 360 359 358 361 362 363 362 358 359 359 358 357 356 355 355 356 356 357 360 363 362 353 350 354 351 356 360 359 359 359 355 353
347 350 357 359 363 365 365 365 366 366 365 362 359 359 358 360 360 360 360 359 358 358 358 358 358 359 360 360 360 362 363 363 354 349 354 353 360 361 360 357 357 356 357
346 350 357 360 360 359 362 365 364 363 362 362 362 362 361 360 359 359 362 362 361 357 358 359 360 363 363 364 364 364 364 363 350 350 356 355 361 363 361 358 360 359 358
346 352 354 359 362 364 360 359 362 361 362 363 363 364 363 363 359 361 363 363 361 361 362 359 361 362 362 363 365 367 366 352 350 353 355 361 363 365 363 363 362 363 362
347 350 352 354 356 360 351 359 360 358 359 363 366 363 363 363 362 359 358 364 366 366 367 365 360 360 358 357 359 364 358 356 351 353 352 363 364 366 365 365 365 364 363
348 351 352 355 362 357 352 357 358 358 361 367 372 372 372 364 368 357 354 357 361 365 361 361 361 357 360 358 357 354 357 354 353 354 357 364 366 366 365 365 365 365 364
348 350 350 358 364 358 356 355 360 356 362 358 365 369 369 361 367 370 359 363 367 364 364 359 357 360 357 356 357 357 355 353 353 353 356 366 366 366 365 366 365 366 366
349 350 352 360 366 369 370 367 367 362 359 358 362 364 364 365 368 358 364 365 365 362 360 357 358 358 357 353 357 351 347 347 350 355 354 368 365 364 364 365 364 364 365
351 352 355 358 364 368 369 375 373 370 366 362 359 361 368 370 367 367 364 364 355 359 360 362 362 360 358 355 352 353 351 349 346 350 354 357 366 363 366 366 365 364 363
351 354 353 356 360 363 367 369 371 367 357 360 359 365 369 373 373 373 363 363 361 363 365 366 365 360 356 353 355 348 349 348 346 348 347 345 350 366 365 365 364 363 362
352 356 357 352 355 360 362 365 363 359 361 360 362 364 369 371 370 372 360 357 364 365 362 361 355 355 355 352 353 351 349 349 349 346 346 347 346 344 361 365 363 362 362
358 359 361 361 357 358 364 362 363 364 364 360 363 362 364 368 365 366 363 365 363 361 361 357 359 359 350 351 346 343 348 344 346 343 345 347 348 347 348 362 363 361 362
359 361 363 365 367 364 362 365 362 358 360 362 361 362 365 367 367 367 361 370 363 361 362 363 367 362 352 349 342 341 345 345 346 346 345 342 345 344 345 348 354 353 361
356 361 362 363 369 365 361 358 357 355 358 358 359 368 373 368 370 373 364 363 365 363 365 365 363 357 349 350 342 340 340 344 345 339 341 342 343 346 344 346 351 345 344
355 359 363 363 368 365 363 362 361 358 357 357 361 370 368 369 370 369 369 365 367 365 369 362 363 353 349 347 342 339 334 336 337 337 343 340 341 341 340 340 343 344 346
353 357 361 363 365 365 365 364 363 370 363 364 365 367 367 368 370 373 372 371 372 372 363 365 360 353 342 344 347 339 333 327 333 340 338 338 343 339 339 340 340 341 345
351 357 361 364 365 367 366 365 361 354 353 356 362 365 361 368 367 368 371 371 372 368 364 360 357 352 349 339 344 346 345 342 332 327 334 335 337 333 337 334 333 335 338
350 354 358 364 365 366 366 364 362 360 357 357 359 362 369 370 369 366 370 369 371 370 369 360 355 349 347 347 343 341 342 339 338 329 321 324 327 330 331 332 329 332 334
349 351 355 361 363 365 366 365 365 362 357 358 359 360 362 364 366 368 368 371 372 368 360 355 353 353 350 349 348 347 340 332 329 326 322 321 322 324 326 328 330 334 334
Wind_Speed
2 5 5 12 13 12 12 14 13 13 13 12 12 12 11 14 13 13 13 12 12 10 11 12 13 12 12 12 12 11 10 8 9 10 10 11 10 9 7 4 6 12 10
3 4 7 12 13 12 12 13 12 12 12 12 11 11 10 12 12 12 12 11 11 10 12 14 13 12 11 11 10 10 7 5 7 7 8 8 11 10 9 11 13 10 9
5 10 11 11 13 12 12 14 10 12 12 11 11 11 12 11 12 12 11 12 11 12 11 11 11 12 11 10 8 7 2 3 5 8 9 6 6 12 9 9 11 10 8
15 14 13 11 12 12 11 10 10 11 12 11 12 12 12 13 11 12 12 13 12 11 12 11 10 10 9 8 6 4 4 4 3 5 5 4 7 10 10 8 8 8 8
4 16 13 12 12 11 10 9 9 10 12 12 12 12 12 11 10 11 11 11 11 11 10 12 10 8 6 4 3 1 6 10 11 10 7 10 7 9 9 8 8 7 6
13 17 13 12 11 10 11 10 10 11 11 10 11 10 10 11 11 12 11 10 10 10 10 8 8 6 4 1 2 5 7 8 11 9 6 9 7 12 10 8 10 8 8
17 16 13 12 11 11 11 10 9 9 12 10 10 10 10 9 11 11 10 9 8 8 7 5 4 3 1 2 3 8 9 10 8 10 6 8 7 14 11 8 9 7 7
17 16 13 12 11 11 10 9 9 9 10 10 10 9 8 9 9 10 9 8 7 6 5 3 2 2 4 5 5 8 13 12 9 10 8 11 13 13 13 9 8 7 7
18 15 13 12 11 11 11 10 9 11 9 10 9 9 10 11 11 10 8 7 6 5 5 5 6 7 7 8 9 10 13 13 7 9 9 8 16 15 15 11 9 7 8
15 13 12 10 10 9 9 9 8 9 8 9 9 9 9 7 8 9 8 5 6 6 7 8 8 8 8 10 11 12 14 14 9 7 2 5 14 15 15 12 9 9 8
12 12 12 11 10 9 9 8 8 10 10 9 9 11 7 4 7 11 6 8 8 8 9 4 6 12 8 12 15 12 11 6 7 4 4 6 11 13 13 13 10 9 10
8 9 11 11 8 11 10 9 8 9 7 6 5 8 5 6 7 9 13 14 10 12 11 8 14 12 12 6 4 12 5 6 6 5 6 11 13 13 12 12 12 12 12
14 13 12 8 7 9 9 7 5 6 6 4 1 3 3 5 4 6 5 4 7 10 5 8 11 7 6 7 2 4 3 5 3 2 7 20 17 13 12 12 11 11 12
13 13 12 12 6 4 5 6 4 3 4 4 5 2 2 2 3 2 3 6 5 4 3 2 2 2 1 4 4 4 4 4 3 4 3 14 12 12 11 12 12 12 12
18 12 12 11 6 3 2 4 1 3 1 5 5 5 2 2 2 2 4 4 4 4 1 4 3 3 3 7 5 2 5 6 5 3 1 7 7 7 10 11 12 12 12
10 13 12 10 8 4 3 3 2 2 2 1 4 6 5 1 1 3 5 4 2 5 2 3 3 4 5 3 4 2 3 5 5 5 1 5 12 14 16 14 13 12 12
12 10 13 11 11 7 5 3 2 4 5 3 4 5 4 2 0 4 5 5 4 2 4 5 6 2 5 5 4 5 4 5 5 5 3 5 5 14 14 11 12 11 11
15 12 13 13 13 11 7 5 5 6 4 4 4 5 7 6 6 4 4 1 1 2 3 3 5 5 5 4 4 3 3 3 3 6 4 3 3 4 8 14 13 12 11
14 13 11 12 13 13 8 6 6 6 3 6 5 5 6 6 4 4 3 3 4 4 2 6 4 4 4 5 5 5 5 4 3 4 5 3 6 4 3 5 11 9 14
12 13 10 7 8 12 9 6 5 6 6 6 7 5 7 4 4 3 4 2 2 5 4 3 2 3 3 3 6 7 6 5 2 4 4 3 5 4 5 4 3 5 8
13 13 13 10 9 7 7 8 7 7 7 6 7 6 8 4 2 2 2 4 5 3 2 3 0 4 4 2 3 5 8 5 2 6 6 3 4 4 5 5 2 0 2
14 14 13 12 10 9 7 7 7 7 6 8 6 5 7 6 4 4 3 4 5 2 2 4 2 1 3 4 1 2 4 5 7 10 5 5 4 2 4 6 5 5 4
17 17 15 14 13 12 11 7 6 4 6 3 4 3 6 8 7 5 4 4 4 2 0 1 3 0 2 3 2 3 3 2 4 4 9 5 6 4 4 6 5 6 4
17 16 16 16 14 13 14 8 10 8 7 5 4 4 6 9 8 7 6 6 6 3 3 2 4 2 2 3 4 3 2 4 3 7 3 3 5 7 5 5 5 6 4
18 17 17 16 16 14 14 13 10 10 8 7 6 8 8 7 8 8 8 8 6 3 2 4 3 2 2 2 3 3 4 5 3 3 5 8 8 4 5 4 6 5 7
18 18 18 18 16 17 15 16 13 12 12 7 7 5 6 4 6 7 7 5 3 4 4 3 4 3 3 0 2 4 3 3 3 3 4 5 6 9 8 7 6 4 5
Wind_Direction
273 35 116 109 103 102 97 94 97 100 98 95 94 89 85 91 95 93 95 97 99 101 105 97 99 98 88 81 83 85 90 99 105 107 107 111 98 82 71 57 197 98 102
134 130 127 113 108 106 101 99 83 88 104 106 101 100 89 85 89 93 93 93 93 89 95 100 100 100 97 91 91 92 107 118 123 126 123 114 115 101 82 58 81 109 105
157 135 129 110 107 101 98 96 95 89 91 91 94 92 93 97 95 100 101 104 95 88 101 99 100 97 95 87 87 89 115 158 175 171 159 155 115 111 93 85 100 108 106
157 143 127 113 111 105 102 104 100 90 91 96 94 94 95 94 103 96 91 105 94 97 94 101 97 93 96 103 90 79 283 271 244 231 220 190 120 122 112 110 115 122 125
160 113 119 117 118 120 121 119 112 101 97 95 100 95 96 99 101 102 101 100 101 99 98 102 95 97 96 96 88 268 286 301 308 306 282 158 124 133 132 134 141 135 160
145 115 125 125 125 125 118 110 110 112 102 102 104 107 110 109 110 109 108 107 104 106 107 105 111 108 107 65 347 298 290 297 305 263 240 129 113 142 144 144 130 129 133
125 123 125 118 119 116 115 117 111 104 116 111 110 112 109 103 103 102 105 104 103 107 113 117 118 117 161 278 293 295 295 296 288 279 231 117 127 146 150 152 149 146 152
131 119 132 124 123 119 119 119 112 112 110 108 112 119 123 114 112 113 111 116 118 122 127 139 169 225 255 262 278 280 291 293 308 296 136 130 157 156 150 161 170 170 172
127 123 141 134 127 122 123 123 111 119 119 125 140 150 160 155 149 139 135 137 142 158 179 199 222 235 243 251 253 256 268 278 296 288 131 133 167 159 155 167 183 195 197
133 145 131 136 142 146 144 125 125 130 143 161 166 171 178 168 158 146 155 170 186 201 220 232 242 251 267 269 267 272 275 292 277 250 217 144 159 170 158 164 189 200 207
139 143 143 163 158 143 131 146 158 169 179 190 194 186 194 190 184 167 156 172 220 219 229 256 341 303 298 276 259 251 271 281 310 51 60 172 160 180 164 167 189 208 214
167 145 149 150 170 160 155 166 180 182 189 202 224 163 207 188 190 85 359 284 243 230 235 199 150 256 236 259 234 232 235 228 256 150 112 224 190 187 174 178 193 208 214
177 184 175 152 169 172 134 189 193 176 187 162 97 354 70 108 164 124 198 255 232 239 235 196 188 215 224 259 201 222 242 330 329 15 171 201 189 180 185 187 197 219 225
192 163 162 145 178 140 191 203 197 171 152 167 133 147 245 227 105 149 241 236 205 213 213 321 126 316 298 256 286 284 276 257 275 296 265 197 176 189 195 198 203 213 228
185 158 158 131 152 254 305 324 7 94 168 131 156 166 250 316 66 253 263 287 311 116 26 18 43 286 282 291 197 328 349 319 262 235 172 156 227 220 217 208 212 219 219
175 147 145 144 151 219 245 311 75 313 61 39 310 151 160 270 40 305 304 272 193 81 45 299 262 267 281 303 357 303 255 245 299 340 272 201 211 199 222 214 215 223 231
168 176 157 160 164 193 213 194 257 264 208 253 222 156 141 227 217 270 263 311 36 54 223 225 254 14 348 0 359 329 352 346 342 348 315 280 259 218 223 222 219 233 232
167 182 171 180 169 178 190 193 224 231 277 262 225 166 164 199 192 244 273 113 320 289 255 0 43 3 354 335 321 344 329 312 287 272 268 302 323 327 209 226 223 225 230
164 170 178 174 169 172 189 205 199 251 240 273 262 107 193 205 178 217 288 116 35 314 338 47 28 355 336 312 324 340 306 305 289 347 298 265 255 250 278 190 225 234 249
162 165 179 185 175 170 176 199 221 217 223 242 257 182 171 196 205 196 282 123 101 284 79 61 352 317 315 340 1 317 304 279 217 257 298 320 29 348 23 3 203 228 263
174 170 179 188 179 172 185 187 207 227 209 224 241 233 156 167 272 171 263 277 191 230 125 130 43 3 328 42 11 330 305 299 73 359 330 13 307 47 5 298 308 8 318
178 178 176 188 187 186 194 214 205 212 221 213 218 199 169 169 194 237 221 283 277 270 252 136 139 272 295 14 307 296 324 332 6 339 339 316 67 338 331 319 320 291 245
181 181 182 188 191 188 208 196 228 244 242 270 218 166 174 179 196 206 233 243 301 263 52 139 107 216 332 316 246 205 306 331 319 313 318 327 336 305 293 279 279 273 243
187 182 183 187 192 193 201 214 200 213 229 219 242 212 208 190 185 204 205 229 222 240 61 259 99 83 331 289 323 36 332 246 271 304 317 323 317 337 340 321 307 303 308
190 185 187 186 194 197 198 217 200 210 211 234 211 223 212 170 183 195 198 209 223 133 289 118 111 170 287 298 10 337 297 281 317 323 318 326 328 320 295 317 311 294 276
195 191 185 185 193 198 197 206 228 200 223 223 216 239 171 194 185 195 210 211 137 165 163 162 193 203 225 288 300 271 298 312 321 330 317 314 298 309 321 296 271 293 291